Location: Miss�
(46.9484°N, 0.1922°W)
Time: 09:45:17
(UTC+00:00)

Cosmos 1500 - Pass Details

Date: 02 March 2021
Orbit: 499 x 517 km, 82.5° (Epoch: 10 April)

Event Time Altitude Azimuth Distance (km) Brightness Sun altitude
Rises 19:04:02 0° 180° (S) 2,580 6.7 -13.8°
Reaches altitude 10° 19:06:09 10° 177° (S) 1,701 5.7 -14.1°
Maximum altitude 19:09:50 63° 96° (E) 564 3.0 -14.8°
Drops below altitude 10° 19:13:32 10° 15° (NNE) 1,715 5.7 -15.4°
Sets 19:15:40 0° 13° (NNE) 2,605 6.7 -15.7°
